TimeCDT,TemperatureF,Dew PointF,Humidity,Sea Level PressureIn,VisibilityMPH,Wind Direction,Wind SpeedMPH,Gust SpeedMPH,PrecipitationIn,Events,Conditions,WindDirDegrees,DateUTC
12:53 AM,61.0,50.0,67,29.97,10.0,Calm,Calm,-,N/A,,Clear,0,2012-03-24 05:53:00
1:53 AM,60.1,50.0,69,29.98,10.0,East,4.6,-,N/A,,Clear,90,2012-03-24 06:53:00
2:53 AM,59.0,50.0,72,29.98,10.0,Calm,Calm,-,N/A,,Clear,0,2012-03-24 07:53:00
4:53 AM,55.9,50.0,80,29.97,10.0,NE,4.6,-,N/A,,Clear,50,2012-03-24 09:53:00
5:53 AM,55.9,51.1,84,29.97,10.0,NNE,3.5,-,N/A,,Clear,30,2012-03-24 10:53:00
6:53 AM,53.1,48.9,86,29.99,10.0,Calm,Calm,-,N/A,,Clear,0,2012-03-24 11:53:00
7:53 AM,53.1,50.0,89,30.01,8.0,Calm,Calm,-,N/A,,Clear,0,2012-03-24 12:53:00
8:53 AM,61.0,55.0,81,30.03,9.0,Calm,Calm,-,N/A,,Clear,0,2012-03-24 13:53:00
9:53 AM,68.0,55.9,65,30.05,10.0,SSE,5.8,-,N/A,,Clear,160,2012-03-24 14:53:00
10:53 AM,70.0,60.1,71,30.06,10.0,Variable,3.5,-,N/A,,Clear,0,2012-03-24 15:53:00
11:53 AM,71.1,60.1,68,30.06,10.0,South,4.6,-,N/A,,Clear,180,2012-03-24 16:53:00
12:53 PM,72.0,62.1,71,30.04,10.0,South,8.1,-,N/A,,Clear,170,2012-03-24 17:53:00
1:53 PM,73.0,61.0,66,30.02,10.0,Variable,4.6,-,N/A,,Clear,0,2012-03-24 18:53:00
2:53 PM,75.0,61.0,62,30.01,10.0,Variable,3.5,-,N/A,,Clear,0,2012-03-24 19:53:00
3:53 PM,77.0,57.9,52,29.99,10.0,South,6.9,-,N/A,,Clear,170,2012-03-24 20:53:00
5:53 PM,79.0,57.9,48,29.96,10.0,South,5.8,-,N/A,,Clear,190,2012-03-24 22:53:00
6:53 PM,79.0,59.0,50,29.96,10.0,South,4.6,-,N/A,,Clear,180,2012-03-24 23:53:00
7:53 PM,75.0,59.0,57,29.97,10.0,SE,3.5,-,N/A,,Clear,140,2012-03-25 00:53:00
8:53 PM,71.1,59.0,66,29.98,10.0,Calm,Calm,-,N/A,,Clear,0,2012-03-25 01:53:00
9:53 PM,69.1,59.0,70,30.00,10.0,Calm,Calm,-,N/A,,Clear,0,2012-03-25 02:53:00
10:53 PM,68.0,59.0,73,30.01,10.0,Calm,Calm,-,N/A,,Clear,0,2012-03-25 03:53:00
11:53 PM,64.9,57.9,78,30.01,10.0,Calm,Calm,-,N/A,,Clear,0,2012-03-25 04:53:00